Regional Weather Roundup
Issued by NWS Wakefield, VA

Home | Current Version | Previous Version | Graphics & Text | Print | Product List | Glossary On
Versions: 1 2 3 4 5 6 7 8 9 10 11 12 13 14 15 16 17 18 19 20 21 22 23 24 25 26 27 28 29 30 31 32 33 34 35 36 37 38 39 40 41 42 43 44 45 46 47 48 49 50
974
ASUS41 KAKQ 131215
RWRAKQ

REGIONAL WEATHER ROUNDUP
NATIONAL WEATHER SERVICE WAKEFIELD VA
700 AM EST SAT FEB 13 2016

Note: "fair" indicates few or no clouds below 12,000 feet with no
significant weather and/or obstructions to visibility. * = Denotes
station may not report precipitation (e.g., rain,snow,etc.),
thunder or fog.

VAZ042-051-052>054-056-131300-
NORTHERN VIRGINIA

CITY           SKY/WX    TMP DP  RH WIND       PRES   REMARKS
WASH NATIONAL  FLURRIES  22   8  55 W17G28    30.18R WCI   8
DULLES         MOCLDY    20   4  50 NW10      30.17R WCI   9
FORT BELVOIR   FAIR      21   2  42 W12G25    30.18R WCI  10
QUANTICO       FAIR      22   1  40 NW10G18   30.21R WCI  11
FREDERICKSBRG* FAIR      22   2  42 NW12G28   30.19R WCI  10
STAFFORD*      FAIR      20   0  42 NW9       30.23R
WARRENTON      FAIR      21   4  48 NW15G25   30.17R WCI   8
CULPEPER*      MOCLDY    20   1  43 NW12G21   30.19R WCI   8
MANASSAS*      CLEAR     19   5  53 NW12G23   30.18R WCI   7
LEESBURG*      CLOUDY    21  10  63 NW16      30.16R WCI   7
WINCHESTER     FAIR      19   5  53 NW16G29   30.15R WCI   5
FRONT ROYAL*   PTSUNNY   18   0  45 NW10G16   30.14R WCI   6
LURAY*         FAIR      18  -4  38 NW14G20   30.16R WCI   4
$$

VAZ048-049-060>072-079>083-131300-
CENTRAL AND SOUTH CENTRAL VIRGINIA

CITY           SKY/WX    TMP DP  RH WIND       PRES   REMARKS
RICHMOND       FAIR      23   2  40 NW18G28   30.19R WCI   9
CHESTERFIELD*  FAIR      23  -6  28 NW18      30.20R WCI   9
PETERSBURG*    FAIR      27  -4  25 NW10G20   30.19R WCI  17
HANOVER        FAIR      22  -3  33 NW13G18   30.21R WCI  10
TAPPAHANNOCK*  FAIR      24   4  42 W9G17     30.19R
QUINTON*       FAIR      24   2  39 NW17G24   30.17R WCI  10
CHARLOTTSVILLE FAIR      20  -6  31 NW12G17   30.18R WCI   8
GORDONSVILLE*  CLOUDY    20  -3  36 NW8       30.19R
ORANGE*        CLOUDY    23   0  36 NW9       30.20R
LOUISA*        FAIR      21  -2  35 NW9G17    30.16R
BUMPASS*       FAIR      21  -3  34 CALM      30.18R
FARMVILLE*     MOCLDY    24  -3  30 W5        30.19R
CREWE*         FAIR      24   2  38 NW7G17    30.19R
FORT PICKETT*  FAIR      24   1  37 NW10      30.18R WCI  13
CHASE CITY*    FAIR      24  -3  30 NW7G23    30.20R
CLARKSVILLE*   FAIR      27   3  36 NW13G23   30.20R WCI  16
SOUTH HILL*    FAIR      25   4  40 NW8       30.24R
LAWRENCEVILLE* FAIR      27   3  36 NW10G23   30.17R WCI  17
EMPORIA*       FAIR      28   7  40 NW7       30.19R
$$

VAZ088>098-131300-
SOUTHEAST VIRGINIA

CITY           SKY/WX    TMP DP  RH WIND       PRES   REMARKS
NORFOLK        MOCLDY    29  18  63 NW15G22   30.14R WCI  18
VIRGINIA BEACH MOCLDY    31  20  63 NW16G32   30.12R WCI  20
NORFOLK NAVAL  MOCLDY    28  19  69 NW16G28   30.16R WCI  16
WEST POINT*    FAIR      25   9  51 NW10G22   30.18R WCI  14
SALUDA*        FAIR      25   7  47 NW17G37   30.15R WCI  12
NEWPORT NEWS   FAIR      25  13  60 NW13G23   30.16R WCI  14
LANGLEY AFB    CLOUDY    27  17  67 NW14      30.14R WCI  15
FORT EUSTIS    FAIR      26  13  55 NW18G26   30.14R WCI  13
WILLIAMSBURG*  MOCLDY    27  12  54 NW16      30.17R WCI  14
HR EXEC AP*    FAIR      21  21 100 N5        30.16R
FRANKLIN*      FAIR      25  19  77 NW5       30.17R
US460-WAKEFLD  FAIR      25  15  66 N9        30.17R
$$

VAZ020-022-025-037-045-131300-
WEST CENTRAL AND SOUTHWEST VIRGINIA

CITY           SKY/WX    TMP DP  RH WIND       PRES   REMARKS
STAUNTON*      FAIR      19  -1  41 NW22G28   30.16S WCI   3
WAYNESBORO*    FAIR      15 -11  31 W14G21    30.13R WCI   0
HOT SPRINGS VA CLOUDY     5  -6  59 NW22G44   29.89R WCI -16
LYNCHBURG      FAIR      19  -3  38 NW9G17    30.19R
DANVILLE       FAIR      25   4  40 N13       30.22R WCI  14
SOUTH BOSTON*  FAIR      24  -1  33 NW18G24   30.22R WCI  10
MARTINSVILLE   FAIR      20   1  43 N14G21    30.23R WCI   7
ROANOKE        FAIR      18  -3  39 NW17G24   30.21R WCI   3
BLACKSBURG     MOCLDY    14   4  64 W12G22    30.16R WCI   0
DUBLIN*        CLOUDY    16   4  59 NW21G37   30.16R WCI  -1
MARION*        CLOUDY    15   5  63 W23       30.15R HAZE    WCI  -3
HILLSVILLE*    MOCLDY    14   3  60 NW26G33   30.05R WCI  -6
RICHLANDS*     LGT SNOW  11   5  76 NW9G20    30.19R
WISE*          LGT SNOW  14   9  79 NW10G16   30.22R WCI   1
ABINGDON*      LGT SNOW  18   8  65 NW8G17    30.25R
$$

MDZ021>025-VAZ099-100-131300-
SOUTHERN MARYLAND AND THE DELMARVA PENINSULA

CITY           SKY/WX    TMP DP  RH WIND       PRES   REMARKS
PATUXENT RIVER PTCLDY    22   3  44 W18G25    30.16R WCI   7
BAY BRIDGE APT   N/A     23   7  50 NW22G29   30.13R WCI   8
LEONARDTOWN    CLEAR     23   3  42 NW10      30.17R WCI  12
DOVER          CLEAR     22   9  57 NW21G31   30.05R WCI   7
GEORGETOWN     CLEAR     22   9  57 NW13G21   30.08R WCI  10
EASTON         PTCLDY    23   7  50 NW21G31   30.14R WCI   8
CAMBRIDGE      PTCLDY    23   9  54 NW13G25   30.12R WCI  11
SALISBURY      MOCLDY    24   9  52 NW17G25   30.09R WCI  11
OCEAN CITY     FLURRIES  22  14  71 NW17G29   30.09R WCI   8
WALLOPS ISLAND MOCLDY    26  10  50 NW23G30   30.09R WCI  11
ACCOMACK*      CLOUDY    27   9  46 NW18G36   30.11R WCI  13
$$

NCZ012>017-030>032-131300-
NORTH CENTRAL AND EASTERN NORTH CAROLINA

CITY           SKY/WX    TMP DP  RH WIND       PRES   REMARKS
ROANOKE RAPIDS FAIR      30  14  51 NW8G17    30.17R
RALEIGH        PTCLDY    30   9  41 NW7       30.19R
ELIZABETH CITY PTCLDY    21  19  92 W5        30.14R
AHOSKIE*       NOT AVBL
EDENTON*       PTCLDY    26  24  96 CALM      30.15R
CURRITUCK*     NOT AVBL
KILL DEVIL HLS NOT AVBL
MANTEO         NOT AVBL
CAPE HATTERAS  CLEAR     32  25  75 VRB7      30.12R
TARBORO*       FAIR      30  18  61 NW7       30.18R
GOLDSBORO      CLEAR     30  21  69 NW9       30.15R
WASHINGTON     CLEAR     26  20  77 NW6       30.16R
GREENVILLE     CLEAR     28  21  74 CALM      30.17R
NEW BERN       CLEAR     29  25  85 NW8       30.17R
WILMINGTON     CLEAR     29  25  85 W5        30.18R FOG
$$

VAZ048-131300-
ELSEWHERE

CITY           SKY/WX    TMP DP  RH WIND       PRES   REMARKS
HARRISBURG PA  PTCLDY    17  -1  45 NW16G28   30.09R WCI   2
BALTIMORE      PTCLDY    20   6  55 W13G24    30.13R WCI   7
ANNAPOLIS      MOCLDY    23   9  55 W10G22    30.14R WCI  12
ANDREWS AFB    FAIR      20   9  61 NW24G30   30.12R WCI   3
PHILADELPHIA   PTCLDY    22   6  50 NW16      30.05R WCI   8
HENDERSON NC   CLEAR     26   2  35 NW7G21    30.19R
GREENSBORO     PTCLDY    27   6  41 N12G18    30.18R WCI  17
ROCKY MOUNT    CLEAR     28  16  60 NW9       30.17R
$$

VAZ100-131300-
MARINE

STATION/POSITION TIME  TEMP    WIND        PRES    WAVE   SWELL
                       AIR SEA DIR/SP/G            HT/PER HT/PER
                 (UTC) (F)     (DEG/KT/KT) (MB)    (FT/S) (FT/S)
BRANDYWINE LGT   1100   25     320/ 26/ 33 1016.1R
CAPE MAY NJ      1100   26 36  310/ 16/ 28 1016.0R
LEWES DE         1100   24 38  300/ 25/ 30 1016.8R
15NM E FENWICK I 1150   27 43              1016.7R   4/ 4
OCEAN-CITY-INLET 1100   25 38  320/ 10/ 13 1016.4R
WACHAPREAGUE VA  1100   24 34  310/  6/ 16 1018.8R
THOMAS POINT MD  1200   22 36  310/ 23/ 26 1020.6R
GOOSES REEF MD   1200   25 37  310/ 21/ 29 1021.2R   3/ 4
COVE POINT MD    1100   24     340/ 25/ 34 1019.5R
SOLOMONS ISLAND  1100   25 39  300/ 13/ 19   N/A
BISHOPS HEAD MD  1100   26 30  300/ 29/ 33 1017.8R
PINEY POINT MD   1100          340/ 34/ 37   N/A
POTOMAC MD       1200   26 39  320/ 23/ 31 1019.8R   3/ 3
CAMBRIDGE MD     1100   25 36  310/ 27/ 35 1018.0R
LEWISETTA VA     1100   26 37  340/ 20/ 30 1019.7R
RAPPAHANNOCK LGT 1100          330/ 27/ 29 1018.9R
STINGRAY PT      1200   27 39  330/ 23/ 27 1020.4R   2/ 3
YORK RVR RNG VA  1100   28     340/ 24/ 29 1018.7R
YORKTOWN VA      1100   28 40  340/ 16/ 22 1019.5R
JAMESTOWN VA     1200   26 40  330/ 14/ 19   N/A
DOMINION TERM VA 1100   27     300/ 11/ 13 1019.0R
KIPTOPEKE VA     1100      39  320/ 25/ 29   N/A
CHES BAY BRIDGE  1100   31 40  290/ 15/ 18 1018.3R
CAPE HENRY VA    1100   31     320/ 18/ 20   N/A
CHESAPEAKE LGHT  1100   31     330/ 17/ 19 1018.7R
WILLOUBY STN VA  1100   29     300/ 11/ 13 1019.8R
CAPE HENRY BUOY  1128      42                N/A     3/ 3
1ST LANDING BUOY 1200      40                N/A     3/ 3
CAPE CHARLES BUO 1126      42                N/A     2/ 3   2/ 9
OFFSHORE WE BUOY 1121      44                N/A     3/ 4   2/13
64NM E OF VA BCH 1150   35 48  320/ 23/ 29 1017.1R   6/ 6   2/11
DUCK PIER NC     1100   29     310/ 12/ 15 1018.0R
44100 DUCK FRF   1124      45                N/A     3/ 5
44056 DUCK FRF   1111      42                N/A     2/11
OREGON INLET NC  1100   30 40  310/ 12/ 16 1018.6R
HATTERAS NC      1100   34 44  320/ 18/ 22 1018.2R
DIAMOND SHLS NC  1150   38 71  340/ 19/ 25 1019.2R   5/ 8   3/10
$$




USA.gov is the U.S. government's official web portal to all federal, state and local government web resources and services.